Weather History for Winston-Salem, NC

Change the Weather History Date:

Thursday, January 3, 2013

  Actual Average Record
Temperature  
Mean Temperature 36 °F -  
Max Temperature 42 °F 49 °F 72 °F (2004)
Min Temperature 30 °F 32 °F 6 °F (1979)
Degree Days  
Heating Degree Days 29    
Moisture  
Dew Point 28 °F    
Average Humidity 67    
Maximum Humidity 92    
Minimum Humidity 53    
Precipitation  
Precipitation 0.00 in - - ()
Sea Level Pressure  
Sea Level Pressure 30.20 in    
Wind  
Wind Speed 4 mph (NE)    
Max Wind Speed 7 mph    
Max Gust Speed -    
Visibility 10 miles    
Events      
Averages and records for this station are not official NWS values.
T = Trace of Precipitation, MM = Missing Value Source: NWS Daily Summary

Daily Weather History Graph

Daily Weather History Graph

Search for Another Location

Airport:

Trip Planner

Search our weather history database for the weather conditions in past years. The results will help you decide how hot, cold, wet, or windy it might be!

Date:

Astronomy

Jan. 03, 2013 Rise Set
Actual Time 7:32 AM EST 5:19 PM EST
Civil Twilight 7:03 AM EST 5:47 PM EST
Nautical Twilight 6:31 AM EST 6:19 PM EST
Astronomical Twilight 6:00 AM EST 6:50 PM EST
Moon 11:39 PM EST (1/3) 10:54 AM EST (1/3)
Length of Visible Light 10h 43m
Length of Day
9h 46m
Waning Gibbous, 65% of the Moon is Illuminated
Jan 3
Waning Gibbous
Jan 4
Last Quarter
Jan 11
New
Jan 18
First Quarter
Jan 26
Full

Hourly Weather History & Observations

Time (EST) Temp. Windchill Dew Point Humidity Pressure Visibility Wind Dir Wind Speed Gust Speed Precip Events Conditions
12:40 AM 39.2 °F 35.9 °F 28.4 °F 65% 30.15 in 10.0 mi ENE 4.6 mph - N/A   Overcast
12:50 AM 39.2 °F 35.9 °F 28.4 °F 65% 30.14 in 10.0 mi ENE 4.6 mph - N/A   Overcast
12:54 AM 39.0 °F 34.8 °F 28.0 °F 65% 30.15 in 10.0 mi ENE 5.8 mph - N/A   Overcast
1:07 AM 39.2 °F 37.0 °F 28.4 °F 65% 30.15 in 10.0 mi NE 3.5 mph - N/A   Overcast
1:54 AM 39.0 °F 35.7 °F 28.9 °F 67% 30.17 in 10.0 mi NNE 4.6 mph - N/A   Overcast
2:36 AM 37.4 °F 34.9 °F 28.4 °F 70% 30.16 in 10.0 mi ENE 3.5 mph - N/A   Overcast
2:54 AM 37.9 °F 35.5 °F 28.9 °F 70% 30.16 in 10.0 mi ESE 3.5 mph - N/A   Overcast
3:54 AM 37.9 °F 33.5 °F 28.9 °F 70% 30.16 in 10.0 mi NE 5.8 mph - N/A   Overcast
4:54 AM 37.9 °F 35.5 °F 28.9 °F 70% 30.16 in 10.0 mi East 3.5 mph - N/A   Overcast
5:01 AM 37.4 °F 34.9 °F 28.4 °F 70% 30.15 in 10.0 mi East 3.5 mph - N/A   Overcast
5:54 AM 37.9 °F 34.4 °F 27.0 °F 65% 30.17 in 10.0 mi ENE 4.6 mph - N/A   Overcast
6:54 AM 37.9 °F 35.5 °F 26.1 °F 62% 30.19 in 10.0 mi ENE 3.5 mph - N/A   Overcast
7:54 AM 37.9 °F 35.5 °F 28.0 °F 68% 30.20 in 10.0 mi NNE 3.5 mph - N/A   Overcast
8:54 AM 37.9 °F 35.5 °F 28.0 °F 68% 30.21 in 10.0 mi NNE 3.5 mph - N/A   Overcast
9:54 AM 37.9 °F 32.7 °F 27.0 °F 65% 30.22 in 10.0 mi NNE 6.9 mph - N/A   Overcast
10:54 AM 39.0 °F 35.7 °F 24.1 °F 55% 30.22 in 10.0 mi North 4.6 mph - N/A   Overcast
11:54 AM 39.9 °F 36.7 °F 24.1 °F 53% 30.20 in 10.0 mi Variable 4.6 mph - N/A   Overcast
12:54 PM 39.9 °F 36.7 °F 25.0 °F 55% 30.18 in 10.0 mi North 4.6 mph - N/A   Overcast
1:54 PM 39.9 °F 37.8 °F 26.1 °F 58% 30.17 in 10.0 mi NNE 3.5 mph - N/A   Overcast
2:54 PM 41.0 °F - 28.0 °F 60% 30.18 in 10.0 mi Calm Calm - N/A   Overcast
3:54 PM 42.1 °F - 30.0 °F 62% 30.19 in 10.0 mi Calm Calm - N/A   Overcast
4:16 PM 42.8 °F - 30.2 °F 61% 30.18 in 10.0 mi Calm Calm - N/A   Scattered Clouds
4:54 PM 41.0 °F - 30.0 °F 65% 30.21 in 10.0 mi Calm Calm - N/A   Clear
5:54 PM 39.9 °F - 28.9 °F 65% 30.22 in 10.0 mi Calm Calm - N/A   Clear
6:54 PM 36.0 °F - 28.9 °F 76% 30.24 in 10.0 mi Calm Calm - N/A   Clear
7:54 PM 35.1 °F - 28.9 °F 78% 30.26 in 9.0 mi Calm Calm - N/A   Clear
8:54 PM 33.1 °F - 28.0 °F 82% 30.26 in 10.0 mi Calm Calm - N/A   Clear
9:54 PM 30.9 °F - 27.0 °F 85% 30.27 in 7.0 mi Calm Calm - N/A   Clear
10:54 PM 30.0 °F - 28.0 °F 92% 30.28 in 7.0 mi Calm Calm - N/A   Clear
11:54 PM 35.1 °F 31.0 °F 25.0 °F 67% 30.28 in 10.0 mi WNW 4.6 mph - N/A   Clear